This demonstration page uses our WeatherBlox Daily Observations layout. Learn more.

36.17497, -115.13722

Hourly Observations for August 6, 2020

Temp ( °F °C ) Dew Point ( °F °C ) Humidity (%) Winds ( mph kmh ) Pressure ( in mb ) Visibility ( mi km ) Precip ( " mm )
12:53 am 00:53 Clear 90 32.2 36 2.2 15 15 S 9 15 29.71 1006 10 16.0934 0 0
1:53 am 01:53 Clear 86 30 36 2.2 17 17 SSE 9 15 29.71 1006 10 16.0934 0 0
2:53 am 02:53 Clear 86 30 38 3.3 18 18 S 10 17 29.71 1006 10 16.0934 0 0
3:53 am 03:53 Clear 83 28.3 38 3.3 20 20 SSE 5 7 29.72 1006 10 16.0934 0 0
4:53 am 04:53 Clear 82 27.8 37 2.8 20 20 Calm 29.72 1006 10 16.0934 0 0
5:53 am 05:53 Sunny 78 25.6 38 3.3 24 24 NNW 6 9 29.75 1007 10 16.0934 0 0
6:53 am 06:53 Sunny 82 27.8 40 4.4 22 22 NE 3 6 29.76 1008 10 16.0934 0 0
7:53 am 07:53 Sunny 85 29.4 41 5 21 21 E 8 13 29.78 1008 10 16.0934 0 0
8:53 am 08:53 Sunny 87 30.6 41 5 20 20 SE 12 19 29.78 1009 10 16.0934 0 0
9:53 am 09:53 Sunny 91 32.8 40 4.4 17 17 SE 10 17 29.79 1009 10 16.0934 0 0
10:53 am 10:53 Sunny 95 35 31 -0.6 10 10 SE 12 19 29.78 1008 10 16.0934 0 0
11:53 am 11:53 Sunny 98 36.7 28 -2.2 8 8 SSE 18 30 29.77 1008 10 16.0934 0 0
12:53 pm 12:53 Sunny 99 37.2 30 -1.1 9 9 SE 13 20 29.75 1008 10 16.0934 0 0
1:53 pm 13:53 Sunny 99 37.2 33 0.6 10 10 VRB 5 7 29.74 1007 10 16.0934 0 0
2:53 pm 14:53 Sunny 100 37.8 33 0.6 10 10 ESE 9 15 29.72 1007 10 16.0934 0 0
3:53 pm 15:53 Sunny 102 38.9 30 -1.1 8 8 SSW 9 15 29.7 1006 10 16.0934 0 0
4:53 pm 16:53 Sunny 101 38.3 27 -2.8 7 7 SSW 9 15 29.68 1005 10 16.0934 0 0
5:53 pm 17:53 Sunny 102 38.9 25 -3.9 6 6 SW 15 24 29.67 1005 10 16.0934 0 0
6:53 pm 18:53 Sunny 100 37.8 25 -3.9 7 7 SW 14 22 29.67 1005 10 16.0934 0 0
7:53 pm 19:53 Clear 97 36.1 22 -5.6 7 7 WSW 12 19 29.68 1005 10 16.0934 0 0
8:53 pm 20:53 Clear 94 34.4 21 -6.1 7 7 WSW 8 13 29.71 1006 10 16.0934 0 0
9:53 pm 21:53 Clear 92 33.3 24 -4.4 8 8 SSW 5 7 29.73 1007 10 16.0934 0 0
10:53 pm 22:53 Clear 91 32.8 25 -3.9 9 9 S 3 6 29.74 1007 10 16.0934 0 0
11:53 pm 23:53 Clear 88 31.1 27 -2.8 11 11 SSW 6 9 29.75 1007 10 16.0934 0 0

Powered by AerisWeather